Showing default

SECOR 1B, 729

Orbit data source: Space-Track

SECOR 1B, 729 is an American payload satellite in LEO that was launched on Sat, 11 Jan 1964 UTC via a THOR SLV-2A AGENA D launch vehicle from the Air Force Western Test Range (AFWTR). Payload-class satellites include a variety of spacecraft equipped with specific instruments for various scientific and technological missions. These include communications satellites like Starlink; space stations such as the ISS; scientific satellites like the Hubble; Earth observation satellites from companies like Planet Labs, Umbra, and HawkEye 360; GPS; miniature CubeSats for education and research; and military/defense satellites.

Loading next visibility...
Identifier
729, 1964-001C
Orbit
LEO
Country
Flag of USUS
Related business
Manufacturer
ITT
Mission
Spacecraft
Bus & Motor
SECOR, Unknown motor
Mass
18 kg wet, 18 kg dry
Launch date (UTC)
1964-01-11 (62 years ago)
Launch vehicle
THOR SLV-2A AGENA D
Launch site
Air Force Western Test Range (AFWTR)
Object type
Payload
Rocket body
Debris
Shape & HBR
Unknown
Radar Cross Section
Medium (>0.1 m² and <1 m²)

Expand to show TLE details & history
Last TLE update: 2 days ago

TLE from 2 days ago
0 SECOR 1B
1 00729U 64001C   26174.70351551 -.00000012  00000-0  31038-4 0  9999
2 00729  69.9016 278.8413 0011533  64.1335 296.0957 13.95226944177614
Epoch: 2026-06-23T16:53Z
TLE epoch observation values (Epoch: 2026-06-23T16:53:03.740Z)
Latitude
-0.00003°
Longitude
113.70443°
Altitude
908.985 km
Speed
7.4 km/s
True Right ascension
18h 35m 21s
True Declination
0° 00' 00"
Sunlit
Object was in full shadow at epoch
Visualization orbit readout
Latitude
Unknown
Longitude
Unknown
Altitude
Unknown
Speed
Unknown
Apparent Right ascension
Unknown
Apparent Declination
Unknown
Sunlit
N/A
Visualization observer readout
Local Sidereal Time
22:45:19
Azimuth
Unknown
Elevation
Unknown
Doppler factor
Unknown
Orbital elements
Apogee altitude
916.828 km
Perigee altitude
900.021 km
Semi-major axis
7,286.561 km
Eccentricity
0.00115
Inclination
69.9016°
RAAN
278.8413°
Arg. of periapsis
64.1335°
True anomaly
295.97694°
Mean anomaly
296.0957°
Eccentric anomaly
296.03633°
Mean motion
3.48947 °/min
Orbital period
103.17 mins
BSTAR
0.000031038
Loading maneuver chart data...
Computing Atmospheric mass density...
Loading historical data...
Loading historical data...
Loading historical data...
Loading historical data...
Loading historical data...
Loading historical data...
Loading historical data...
Other satellites on launch #1 in the year 1964 (1964-01-11 UTC)

Documentation

Showing up to 5 results
|